Hourly Data Report for March 02, 2017

All times are specified in Local Standard Time (LST). Add 1 hour to adjust for Daylight Saving Time where and when it is observed.

TORONTO INTL A
ONTARIO

43°40'36.000" N
79°37'50.000" W
173.40 m
6158731
71624
YYZ

Download Data

Hourly Data (March 2017)
Hourly Data Report for March 2, 2017
TIME Temp Definition
°C
Dew Point Definition
°C
Rel Hum Definition
%
Wind Dir Definition
10's deg

Wind Spd Definition
km/h
Visibility Definition
km
Stn Press Definition
kPa
Hmdx Definition


Wind Chill Definition


Weather Definition


00:00 -1.6 -7.4 65 29 46 24.1 97.75   -10 Snow
01:00 -4.1 -11.6 56 31 52 24.1 98.00   -14 Mostly Cloudy
02:00 -6.1 -13.1 58 31 48 24.1 98.22   -16 LegendNANA
03:00 -6.7 -14.1 56 31 47 24.1 98.37   -17 LegendNANA
04:00 -6.8 -13.8 58 31 46 24.1 98.58   -17 Mainly Clear
05:00 -6.9 -13.6 59 30 45 24.1 98.77   -17 LegendNANA
06:00 -6.8 -13.8 58 30 35 24.1 98.93   -16 LegendNANA
07:00 -6.9 -13.4 60 31 34 24.1 99.09   -16 Cloudy
08:00 -7.3 -13.6 61 30 28 24.1 99.25   -16 LegendNANA
09:00 -6.7 -13.7 58 30 34 24.1 99.40   -16 LegendNANA
10:00 -6.1 -13.8 55 30 26 24.1 99.49   -14 Mostly Cloudy
11:00 -4.9 -13.6 51 30 27 24.1 99.56   -12 LegendNANA
12:00 -3.8 -13.0 49 30 30 24.1 99.61   -11 LegendNANA
13:00 -3.8 -13.3 48 30 31 24.1 99.62   -12 Mostly Cloudy
14:00 -3.2 -12.2 50 27 31 24.1 99.66   -11 LegendNANA
15:00 -2.9 -13.8 43 30 33 24.1 99.69   -11 LegendNANA
16:00 -2.8 -13.5 44 29 32 24.1 99.75   -10 Cloudy
17:00 -3.0 -13.1 46 32 27 24.1 99.81   -10 LegendNANA
18:00 -4.0 -13.5 48 30 32 24.1 99.90   -12 LegendNANA
19:00 -4.8 -13.5 51 31 27 24.1 100.03   -12 Mostly Cloudy
20:00 -5.8 -14.4 51 31 35 24.1 100.12   -15 LegendNANA
21:00 -6.1 -13.3 57 31 26 24.1 100.17   -14 LegendNANA
22:00 -6.0 -13.2 57 30 17 24.1 100.18   -12 Mostly Cloudy
23:00 -6.2 -12.8 60 32 16 24.1 100.17   -12 LegendNANA

Notes on Data Quality.

Legend

  • E = Estimated
  • M = Missing
  • NA = Not Available
Date modified: